Home   Weather   Virudhunagar   Past weeks

Flag for India Past Weather in Virudhunagar, Tamil Nadu, India — Yesterday and Last 2 Weeks

Now
73 °F

Fog.


Feels Like: 70 °F
Forecast: 67 / 91 °F
Wind: 7 mph from Northeast

Location: Tiruchchirapalli

Current Time: Dec 6, 2016 at 6:21:20 am

Latest Report: Dec 6, 2016 at 6:00 am


Visibility: 1 mi

Pressure: 29.89 "Hg

Humidity: 94%

Dew Point: 72 °F

Location of VirudhunagarLocation

Past Weather in Virudhunagar — Graph

°F

Virudhunagar Temperature Yesterday

Maximum temperature yesterday: 90 °F (at 1:30 pm)
Minimum temperature yesterday: 75 °F (at 2:30 am)
Average temperature yesterday: 81 °F

High & Low Weather Summary for the Past Weeks

 TemperatureHumidityPressure
High95 °F (Nov 27, 3:30 pm)100% (Dec 2, 5:30 pm)30.01 "Hg (Dec 2, 5:30 pm)
Low64 °F (Dec 1, 2:30 pm)28% (Nov 27, 3:30 pm)29.74 "Hg (Nov 23, 2:30 pm)
Average79 °F72%29.86 "Hg
* Reported Nov 21 5:00 am — Dec 6 5:00 am, Virudhunagar, Weather by CustomWeather, © 2016

Note: Actual official high and low records may vary slightly from our data, if they occured in-between our weather recording intervals... More about our weather records

Advertising

Virudhunagar Weather History for the Previous 24 Hours

Scroll right to see more
 ConditionsComfort  
Time TempWeatherWind HumidityBarometerVisibility
5:00 am
Tue, Dec 6
75 °FFog.6 mph94%29.86 "Hg1 mi
4:30 am75 °FFog.6 mph94%29.86 "Hg1 mi
3:30 am75 °FFog.6 mph94%29.86 "Hg1 mi
3:00 am75 °FFog.5 mph94%29.86 "Hg1 mi
2:30 am75 °FFog.5 mph94%29.89 "Hg2 mi
2:00 am75 °FFog.5 mph94%29.89 "Hg2 mi
1:30 am75 °FFog.7 mph94%29.89 "Hg2 mi
1:00 am75 °FFog.7 mph94%29.89 "Hg2 mi
12:30 am77 °FFog.6 mph89%29.92 "Hg2 mi
12:00 am77 °FFog.6 mph89%29.92 "Hg2 mi
11:30 pm
Mon, Dec 5
77 °FFog.7 mph89%29.92 "Hg2 mi
11:00 pm77 °FFog.6 mph89%29.92 "Hg2 mi
10:30 pm77 °FFog.6 mph89%29.92 "Hg2 mi
10:00 pm79 °FFog.6 mph84%29.92 "Hg2 mi
9:30 pm79 °FFog.5 mph84%29.92 "Hg3 mi
9:00 pm79 °FFog.7 mph84%29.92 "Hg3 mi
8:30 pm79 °FFog.7 mph84%29.92 "Hg3 mi
8:00 pm79 °FFog.10 mph84%29.92 "Hg3 mi
7:30 pm81 °FFog.9 mph79%29.89 "Hg3 mi
7:00 pm81 °FHaze.9 mph79%29.89 "Hg3 mi
6:30 pm81 °FHaze.8 mph79%29.86 "Hg3 mi
6:00 pm82 °FHaze.8 mph74%29.86 "Hg3 mi
5:30 pm82 °FHaze.7 mph74%29.83 "Hg3 mi
5:00 pm84 °FHaze.7 mph66%29.83 "Hg3 mi
4:30 pm86 °FHaze.8 mph62%29.83 "Hg3 mi
4:00 pm86 °FScattered clouds.8 mph62%29.83 "Hg3 mi
3:30 pm88 °FRain. Broken clouds.14 mph59%29.83 "Hg2 mi
3:00 pm90 °FScattered clouds.10 mph55%29.83 "Hg4 mi
2:30 pm90 °FScattered clouds.8 mph55%29.83 "Hg4 mi
2:00 pm90 °FScattered clouds.13 mph55%29.83 "Hg4 mi
1:30 pm90 °FScattered clouds.13 mph55%29.86 "Hg5 mi
1:00 pm88 °FScattered clouds.13 mph59%29.86 "Hg5 mi
12:30 pm88 °FScattered clouds.14 mph59%29.89 "Hg5 mi
12:00 pm88 °FScattered clouds.14 mph59%29.89 "Hg4 mi
11:30 am86 °FScattered clouds.13 mph62%29.92 "Hg4 mi
11:00 am86 °FScattered clouds.13 mph62%29.95 "Hg4 mi
10:30 am86 °FScattered clouds.12 mph66%29.95 "Hg4 mi
10:00 am84 °FScattered clouds.12 mph70%29.95 "Hg4 mi
9:30 am84 °FScattered clouds.10 mph70%29.95 "Hg4 mi
9:00 am82 °FScattered clouds.10 mph74%29.95 "Hg2 mi
8:30 am81 °FFog.9 mph79%29.95 "Hg2 mi
8:00 am79 °FFog.6 mph84%29.95 "Hg2 mi
7:30 am77 °FFog.2 mph89%29.95 "Hg2 mi
7:00 am75 °FFog.2 mph94%29.92 "Hg2 mi
6:30 am75 °FFog.2 mph94%29.89 "Hg2 mi
6:00 am75 °FFog.3 mph94%29.89 "Hg2 mi
Weather by CustomWeather, © 2016

See weather overviewHow to use our weather pages